SDM743 UHWW-ULLI

Flight info

Callsign SDM743
Flight time 8h 16m
Altitude 33000
Route DOLMA2F DOLMA B356 TD B355 HAB/K0902F340 L168 LEBNA T541 MOKIT/K0904F360 T541 TURMA G719 THN N742 UHT T816 ARPOT/K0885F380 T816 AMDEN P979 BEPOL BEPOL1A
Aircraft B77W/H-SDE1E2E3FGHIJ2J3J4J5M1RWXY/LB1D1

Departure

Time 2026-04-14 03:44
Airport Vladivostok International Airport (UHWW)

Arrival

Time 2026-04-14 12:00
Airport Pulkovo Airport (ULLI)
Time Latitude Longitude Altitude Speed Heading
2026-04-14 03:15 43.39762 132.16551 38 ft 0 kts 152°
2026-04-14 03:26 43.39766 132.16548 38 ft 2 kts 152°
2026-04-14 03:26 43.39782 132.16536 37 ft 3 kts 154°
2026-04-14 03:27 43.39801 132.16526 37 ft 3 kts 168°
2026-04-14 03:27 43.39820 132.16524 37 ft 3 kts 188°
2026-04-14 03:27 43.39839 132.16531 36 ft 3 kts 211°
2026-04-14 03:27 43.39855 132.16547 38 ft 3 kts 231°
2026-04-14 03:28 43.39866 132.16570 38 ft 3 kts 241°
2026-04-14 03:28 43.39870 132.16580 38 ft 0 kts 242°
2026-04-14 03:35 43.39867 132.16572 38 ft 6 kts 242°
2026-04-14 03:35 43.39839 132.16499 38 ft 9 kts 242°
2026-04-14 03:35 43.39809 132.16424 38 ft 9 kts 240°
2026-04-14 03:35 43.39779 132.16350 38 ft 9 kts 240°
2026-04-14 03:36 43.39750 132.16275 38 ft 9 kts 255°
2026-04-14 03:36 43.39775 132.16200 38 ft 9 kts 323°
2026-04-14 03:36 43.39830 132.16154 38 ft 9 kts 329°
2026-04-14 03:36 43.39881 132.16101 38 ft 9 kts 302°
2026-04-14 03:37 43.39875 132.16015 37 ft 9 kts 247°
2026-04-14 03:37 43.39840 132.15926 37 ft 13 kts 240°
2026-04-14 03:37 43.39787 132.15796 37 ft 16 kts 240°
2026-04-14 03:37 43.39731 132.15658 37 ft 16 kts 241°
2026-04-14 03:38 43.39676 132.15521 38 ft 16 kts 241°
2026-04-14 03:38 43.39621 132.15383 38 ft 16 kts 241°
2026-04-14 03:38 43.39566 132.15246 38 ft 16 kts 240°
2026-04-14 03:38 43.39510 132.15109 38 ft 16 kts 240°
2026-04-14 03:39 43.39454 132.14972 37 ft 16 kts 241°
2026-04-14 03:39 43.39399 132.14834 37 ft 16 kts 241°
2026-04-14 03:39 43.39344 132.14697 37 ft 16 kts 241°
2026-04-14 03:39 43.39289 132.14560 37 ft 16 kts 241°
2026-04-14 03:40 43.39234 132.14422 38 ft 16 kts 240°
2026-04-14 03:40 43.39177 132.14286 38 ft 16 kts 240°
2026-04-14 03:40 43.39121 132.14149 38 ft 16 kts 240°
2026-04-14 03:40 43.39065 132.14012 38 ft 16 kts 241°
2026-04-14 03:41 43.39010 132.13875 38 ft 16 kts 241°
2026-04-14 03:41 43.38955 132.13738 36 ft 16 kts 241°
2026-04-14 03:41 43.38900 132.13600 38 ft 16 kts 241°
2026-04-14 03:41 43.38845 132.13463 38 ft 16 kts 240°
2026-04-14 03:42 43.38790 132.13328 38 ft 16 kts 241°
2026-04-14 03:42 43.38797 132.13185 38 ft 16 kts 314°
2026-04-14 03:42 43.38895 132.13108 38 ft 16 kts 345°
2026-04-14 03:42 43.38980 132.13198 37 ft 12 kts 60°
2026-04-14 03:43 43.38981 132.13202 37 ft 0 kts 60°
2026-04-14 03:43 43.39075 132.13429 37 ft 70 kts 60°
2026-04-14 03:43 43.39456 132.14364 38 ft 152 kts 61°
2026-04-14 03:43 43.40095 132.15906 125 ft 208 kts 60°
2026-04-14 03:44 43.40786 132.17601 1129 ft 198 kts 61°
2026-04-14 03:44 43.41450 132.19270 1960 ft 205 kts 60°
2026-04-14 03:44 43.42180 132.21098 2237 ft 231 kts 61°
2026-04-14 03:44 43.42974 132.23084 2866 ft 241 kts 61°
2026-04-14 03:45 43.43800 132.25145 3557 ft 251 kts 60°
2026-04-14 03:45 43.44667 132.27307 4194 ft 265 kts 60°
2026-04-14 03:45 43.45572 132.29560 4963 ft 272 kts 60°
2026-04-14 03:45 43.46497 132.31863 5762 ft 278 kts 60°
2026-04-14 03:46 43.47442 132.34219 6555 ft 284 kts 60°
2026-04-14 03:46 43.48417 132.36618 7304 ft 288 kts 56°
2026-04-14 03:46 43.49759 132.38598 7895 ft 289 kts 30°
2026-04-14 03:46 43.51501 132.39990 8606 ft 291 kts 24°
2026-04-14 03:47 43.53295 132.41308 9410 ft 294 kts 24°
2026-04-14 03:47 43.55095 132.42695 10162 ft 299 kts 25°
2026-04-14 03:47 43.56907 132.44149 10814 ft 306 kts 25°
2026-04-14 03:47 43.58809 132.45683 11065 ft 329 kts 25°
2026-04-14 03:48 43.60852 132.47326 11277 ft 352 kts 25°
2026-04-14 03:48 43.63044 132.49084 11481 ft 374 kts 25°
2026-04-14 03:48 43.65323 132.50914 11740 ft 384 kts 26°
2026-04-14 03:48 43.67655 132.52794 12069 ft 392 kts 26°
2026-04-14 03:49 43.70024 132.54705 12537 ft 395 kts 25°
2026-04-14 03:49 43.72418 132.56637 13083 ft 400 kts 25°
2026-04-14 03:49 43.74839 132.58585 13849 ft 405 kts 25°
2026-04-14 03:49 43.77280 132.60548 14654 ft 408 kts 25°
2026-04-14 03:50 43.79746 132.62532 15464 ft 410 kts 24°
2026-04-14 03:50 43.82148 132.64693 16041 ft 419 kts 32°
2026-04-14 03:50 43.84402 132.67330 16731 ft 428 kts 37°
2026-04-14 03:50 43.86589 132.70164 17476 ft 433 kts 38°
2026-04-14 03:51 43.88784 132.73065 18247 ft 438 kts 37°
2026-04-14 03:51 43.91010 132.75959 18810 ft 438 kts 36°
2026-04-14 03:51 43.93265 132.78819 19069 ft 441 kts 36°
2026-04-14 03:51 43.95565 132.81672 19239 ft 446 kts 35°
2026-04-14 03:52 43.97894 132.84533 19520 ft 448 kts 35°
2026-04-14 03:52 44.00231 132.87402 19829 ft 449 kts 34°
2026-04-14 03:52 44.02574 132.90286 20105 ft 451 kts 34°
2026-04-14 03:52 44.04892 132.93149 20348 ft 453 kts 34°
2026-04-14 03:53 44.07250 132.96073 20583 ft 456 kts 34°
2026-04-14 03:53 44.09621 132.99020 20830 ft 458 kts 34°
2026-04-14 03:53 44.11996 133.01979 21066 ft 459 kts 34°
2026-04-14 03:53 44.14386 133.04961 21334 ft 461 kts 34°
2026-04-14 03:54 44.16776 133.07944 21563 ft 463 kts 34°
2026-04-14 03:54 44.19183 133.10949 21772 ft 465 kts 34°
2026-04-14 03:54 44.21654 133.13851 22018 ft 466 kts 30°
2026-04-14 03:54 44.24251 133.16561 22581 ft 467 kts 28°
2026-04-14 03:55 44.26891 133.19215 23245 ft 469 kts 27°
2026-04-14 03:55 44.29554 133.21880 23818 ft 473 kts 27°
2026-04-14 03:55 44.32228 133.24576 24298 ft 477 kts 27°
2026-04-14 03:55 44.34928 133.27332 24771 ft 481 kts 27°
2026-04-14 03:56 44.37630 133.30117 25234 ft 485 kts 28°
2026-04-14 03:56 44.40352 133.32942 25693 ft 489 kts 28°
2026-04-14 03:56 44.43062 133.35762 26102 ft 493 kts 28°
2026-04-14 03:56 44.45826 133.38642 26546 ft 496 kts 28°
2026-04-14 03:57 44.48604 133.41536 27007 ft 499 kts 27°
2026-04-14 03:57 44.51402 133.44450 27422 ft 503 kts 27°
2026-04-14 03:57 44.54223 133.47389 27813 ft 507 kts 27°
2026-04-14 03:57 44.57060 133.50348 28201 ft 510 kts 27°
2026-04-14 03:58 44.59910 133.53324 28592 ft 513 kts 27°
2026-04-14 03:58 44.62785 133.56331 28970 ft 516 kts 27°
2026-04-14 03:58 44.65664 133.59347 29354 ft 519 kts 27°
2026-04-14 03:58 44.68566 133.62389 29671 ft 522 kts 27°
2026-04-14 03:59 44.71475 133.65446 30047 ft 523 kts 27°
2026-04-14 03:59 44.74393 133.68517 30456 ft 523 kts 27°
2026-04-14 03:59 44.77302 133.71585 30858 ft 522 kts 27°
2026-04-14 03:59 44.80204 133.74646 31242 ft 521 kts 27°
2026-04-14 04:00 44.83103 133.77704 31604 ft 521 kts 27°
2026-04-14 04:00 44.86001 133.80764 31958 ft 521 kts 27°
2026-04-14 04:00 44.88895 133.83824 32316 ft 520 kts 27°
2026-04-14 04:00 44.91790 133.86890 32666 ft 520 kts 27°
2026-04-14 04:01 44.94696 133.89910 32980 ft 518 kts 26°
2026-04-14 04:01 44.97601 133.92826 33100 ft 521 kts 25°
2026-04-14 04:01 45.00576 133.95752 33165 ft 521 kts 25°
2026-04-14 04:02 45.06505 134.01573 33140 ft 515 kts 25°
2026-04-14 04:02 45.12364 134.07387 33153 ft 514 kts 25°
2026-04-14 04:03 45.18209 134.13238 33186 ft 515 kts 26°
2026-04-14 04:03 45.24072 134.19139 33137 ft 517 kts 26°
2026-04-14 04:04 45.29935 134.25055 33128 ft 517 kts 26°
2026-04-14 04:04 45.35794 134.30977 33132 ft 517 kts 26°
2026-04-14 04:05 45.41646 134.36906 33133 ft 516 kts 26°
2026-04-14 04:05 45.47494 134.42846 33130 ft 516 kts 26°
2026-04-14 04:06 45.53336 134.48796 33132 ft 515 kts 26°
2026-04-14 04:06 45.59130 134.54709 33132 ft 515 kts 26°
2026-04-14 04:07 45.64947 134.60664 33147 ft 515 kts 26°
2026-04-14 04:07 45.70760 134.66632 33135 ft 514 kts 26°
2026-04-14 04:08 45.76568 134.72608 33129 ft 514 kts 26°
2026-04-14 04:08 45.82372 134.78598 33120 ft 514 kts 26°
2026-04-14 04:09 45.88236 134.84235 33112 ft 495 kts 16°
2026-04-14 04:09 45.94672 134.87249 33143 ft 484 kts
2026-04-14 04:09 45.97967 134.87804 33131 ft 473 kts 353°
2026-04-14 04:10 46.01243 134.87999 33122 ft 470 kts 352°
2026-04-14 04:10 46.07690 134.88462 33134 ft 464 kts 355°
2026-04-14 04:11 46.14217 134.89542 33129 ft 478 kts 357°
2026-04-14 04:11 46.20817 134.90652 33114 ft 477 kts 356°
2026-04-14 04:12 46.26291 134.91447 33108 ft 474 kts 356°
2026-04-14 04:12 46.33908 134.92451 33106 ft 471 kts 355°
2026-04-14 04:13 46.39378 134.93163 33121 ft 470 kts 356°
2026-04-14 04:13 46.46951 134.94168 33115 ft 470 kts 356°
2026-04-14 04:14 46.53460 134.95043 33109 ft 470 kts 356°
2026-04-14 04:14 46.59967 134.95925 33103 ft 469 kts 356°
2026-04-14 04:15 46.66467 134.96805 33104 ft 469 kts 356°
2026-04-14 04:15 46.72976 134.97685 33133 ft 470 kts 356°
2026-04-14 04:16 46.78386 134.98420 33101 ft 469 kts 356°
2026-04-14 04:16 46.84868 134.99293 33091 ft 466 kts 356°
2026-04-14 04:17 46.92414 135.00230 33092 ft 464 kts 356°
2026-04-14 04:17 46.98843 135.01013 33092 ft 463 kts 356°
2026-04-14 04:18 47.04184 135.01670 33093 ft 463 kts 356°
2026-04-14 04:18 47.10615 135.02470 33094 ft 464 kts 356°
2026-04-14 04:19 47.17070 135.03279 33089 ft 465 kts 356°
2026-04-14 04:19 47.23533 135.04092 33091 ft 466 kts 356°
2026-04-14 04:20 47.30014 135.04907 33104 ft 467 kts 356°
2026-04-14 04:20 47.36451 135.05720 33081 ft 467 kts 356°
2026-04-14 04:21 47.42928 135.06543 33077 ft 465 kts 356°
2026-04-14 04:21 47.49362 135.07360 33077 ft 464 kts 356°
2026-04-14 04:22 47.55797 135.08177 33085 ft 464 kts 356°
2026-04-14 04:22 47.62166 135.08658 33084 ft 458 kts 351°
2026-04-14 04:23 47.68352 135.07550 33080 ft 438 kts 335°
2026-04-14 04:23 47.71202 135.06004 33201 ft 437 kts 331°
2026-04-14 04:23 47.74019 135.04298 33308 ft 435 kts 332°
2026-04-14 04:24 47.79780 135.01434 33336 ft 443 kts 338°
2026-04-14 04:24 47.82791 135.00293 33458 ft 448 kts 339°
2026-04-14 04:24 47.85818 134.99193 33774 ft 448 kts 339°
2026-04-14 04:24 47.88808 134.98083 33948 ft 450 kts 339°
2026-04-14 04:25 47.91852 134.96901 34010 ft 453 kts 338°
2026-04-14 04:25 47.97916 134.94418 34057 ft 450 kts 338°
2026-04-14 04:26 48.03898 134.91890 34061 ft 445 kts 337°
2026-04-14 04:26 48.09855 134.89353 34068 ft 445 kts 337°
2026-04-14 04:27 48.15815 134.86817 34062 ft 445 kts 337°
2026-04-14 04:27 48.21785 134.84279 34060 ft 447 kts 338°
2026-04-14 04:28 48.27783 134.81728 34062 ft 450 kts 337°
2026-04-14 04:28 48.33817 134.79155 34055 ft 451 kts 337°
2026-04-14 04:29 48.39860 134.76570 34050 ft 452 kts 337°
2026-04-14 04:29 48.45927 134.73969 34050 ft 452 kts 337°
2026-04-14 04:30 48.51943 134.71385 34049 ft 452 kts 337°
2026-04-14 04:30 48.57989 134.68781 34050 ft 451 kts 337°
2026-04-14 04:31 48.64029 134.66171 34054 ft 451 kts 337°
2026-04-14 04:31 48.73081 134.62248 34049 ft 451 kts 337°
2026-04-14 04:32 48.79118 134.59624 34040 ft 451 kts 337°
2026-04-14 04:32 48.85144 134.56999 34054 ft 451 kts 337°
2026-04-14 04:33 48.91174 134.54363 34044 ft 450 kts 338°
2026-04-14 04:33 48.97195 134.51726 34037 ft 450 kts 338°
2026-04-14 04:34 49.03215 134.49083 34045 ft 451 kts 338°
2026-04-14 04:34 49.09078 134.45997 34041 ft 445 kts 331°
2026-04-14 04:35 49.11841 134.43993 34017 ft 433 kts 326°
2026-04-14 04:35 49.14383 134.41551 34040 ft 432 kts 321°
2026-04-14 04:35 49.19280 134.36069 34038 ft 439 kts 319°
2026-04-14 04:36 49.24287 134.30634 34029 ft 442 kts 321°
2026-04-14 04:36 49.29403 134.25399 34027 ft 442 kts 322°
2026-04-14 04:37 49.34534 134.20210 34016 ft 442 kts 322°
2026-04-14 04:37 49.39653 134.14979 34030 ft 442 kts 322°
2026-04-14 04:38 49.44737 134.09748 34026 ft 443 kts 322°
2026-04-14 04:38 49.49879 134.04456 34026 ft 444 kts 322°
2026-04-14 04:39 49.55025 133.99182 34028 ft 445 kts 322°
2026-04-14 04:39 49.60179 133.93890 34028 ft 445 kts 322°
2026-04-14 04:40 49.65318 133.88596 34015 ft 443 kts 322°
2026-04-14 04:41 49.72946 133.80710 34032 ft 440 kts 322°
2026-04-14 04:41 49.78036 133.75425 34038 ft 441 kts 322°
2026-04-14 04:42 49.83131 133.70124 34025 ft 442 kts 322°
2026-04-14 04:42 49.88238 133.64796 34014 ft 443 kts 322°
2026-04-14 04:43 49.93354 133.59447 34046 ft 444 kts 322°
2026-04-14 04:43 49.98485 133.54067 34042 ft 445 kts 321°
2026-04-14 04:44 50.03609 133.48680 34031 ft 445 kts 321°
2026-04-14 04:44 50.08740 133.43274 34029 ft 445 kts 321°
2026-04-14 04:45 50.13816 133.37871 34027 ft 444 kts 321°
2026-04-14 04:45 50.18906 133.32396 34042 ft 445 kts 321°
2026-04-14 04:46 50.23999 133.26899 34040 ft 445 kts 321°
2026-04-14 04:46 50.29097 133.21397 34033 ft 445 kts 321°
2026-04-14 04:47 50.34190 133.15888 34041 ft 444 kts 321°
2026-04-14 04:47 50.39274 133.10374 34043 ft 445 kts 321°
2026-04-14 04:48 50.44365 133.04837 34049 ft 445 kts 321°
2026-04-14 04:48 50.49426 132.99318 34043 ft 445 kts 321°
2026-04-14 04:49 50.54507 132.93763 34045 ft 445 kts 321°
2026-04-14 04:49 50.59593 132.88185 34053 ft 446 kts 321°
2026-04-14 04:50 50.64691 132.82581 34045 ft 447 kts 321°
2026-04-14 04:50 50.69790 132.76961 34047 ft 447 kts 321°
2026-04-14 04:51 50.74886 132.71328 34042 ft 447 kts 321°
2026-04-14 04:51 50.79984 132.65677 34065 ft 448 kts 321°
2026-04-14 04:52 50.85089 132.59999 34053 ft 449 kts 321°
2026-04-14 04:52 50.90185 132.54322 34043 ft 450 kts 321°
2026-04-14 04:53 50.95315 132.48591 34037 ft 450 kts 321°
2026-04-14 04:53 51.00435 132.42855 34057 ft 451 kts 321°
2026-04-14 04:54 51.05549 132.37109 34039 ft 450 kts 321°
2026-04-14 04:54 51.10656 132.31354 34047 ft 449 kts 321°
2026-04-14 04:55 51.15719 132.25633 34043 ft 449 kts 321°
2026-04-14 04:55 51.20791 132.19854 34054 ft 448 kts 320°
2026-04-14 04:56 51.25742 132.13822 34050 ft 447 kts 319°
2026-04-14 04:56 51.30635 132.07696 34047 ft 447 kts 319°
2026-04-14 04:57 51.35548 132.01574 34048 ft 447 kts 319°
2026-04-14 04:57 51.40476 131.95468 34050 ft 448 kts 319°
2026-04-14 04:58 51.45409 131.89354 34060 ft 449 kts 319°
2026-04-14 04:58 51.50320 131.83247 34057 ft 449 kts 319°
2026-04-14 04:59 51.55257 131.77086 34060 ft 450 kts 319°
2026-04-14 04:59 51.60199 131.70902 34058 ft 450 kts 319°
2026-04-14 05:00 51.65147 131.64692 34056 ft 450 kts 319°
2026-04-14 05:00 51.70075 131.58489 34065 ft 450 kts 319°
2026-04-14 05:01 51.74969 131.52311 34060 ft 450 kts 319°
2026-04-14 05:01 51.79896 131.46077 34058 ft 449 kts 318°
2026-04-14 05:02 51.84808 131.39840 34065 ft 449 kts 319°
2026-04-14 05:02 51.89725 131.33577 34060 ft 450 kts 319°
2026-04-14 05:03 51.94644 131.27294 34056 ft 450 kts 318°
2026-04-14 05:03 51.99554 131.21005 34060 ft 450 kts 318°
2026-04-14 05:04 52.04472 131.14686 34066 ft 450 kts 318°
2026-04-14 05:04 52.09387 131.08357 34060 ft 451 kts 318°
2026-04-14 05:05 52.13472 131.03081 34060 ft 451 kts 318°
2026-04-14 05:05 52.18383 130.96718 34057 ft 452 kts 318°
2026-04-14 05:06 52.23305 130.90323 34053 ft 452 kts 318°
2026-04-14 05:06 52.29055 130.82830 34064 ft 453 kts 318°
2026-04-14 05:07 52.33152 130.77474 34056 ft 454 kts 318°
2026-04-14 05:07 52.38884 130.69960 34053 ft 454 kts 318°
2026-04-14 05:08 52.43012 130.64532 34044 ft 454 kts 318°
2026-04-14 05:08 52.47936 130.58041 34054 ft 454 kts 318°
2026-04-14 05:09 52.52829 130.51570 34044 ft 454 kts 318°
2026-04-14 05:09 52.57749 130.45044 34050 ft 454 kts 318°
2026-04-14 05:10 52.62657 130.38515 34047 ft 454 kts 318°
2026-04-14 05:10 52.67566 130.31966 34050 ft 454 kts 318°
2026-04-14 05:11 52.72471 130.25400 34046 ft 454 kts 318°
2026-04-14 05:11 52.77372 130.18822 34043 ft 454 kts 318°
2026-04-14 05:12 52.82272 130.12225 34064 ft 454 kts 318°
2026-04-14 05:12 52.87183 130.05592 34048 ft 456 kts 318°
2026-04-14 05:13 52.92098 129.98936 34045 ft 457 kts 318°
2026-04-14 05:13 52.97021 129.92250 34042 ft 458 kts 318°
2026-04-14 05:14 53.01920 129.85578 34042 ft 458 kts 318°
2026-04-14 05:14 53.06843 129.78850 34036 ft 458 kts 318°
2026-04-14 05:15 53.11761 129.72109 34046 ft 458 kts 318°
2026-04-14 05:15 53.16678 129.65346 34039 ft 458 kts 318°
2026-04-14 05:16 53.21594 129.58566 34042 ft 458 kts 318°
2026-04-14 05:16 53.26493 129.51788 34035 ft 458 kts 318°
2026-04-14 05:17 53.31387 129.44995 34042 ft 457 kts 318°
2026-04-14 05:17 53.36286 129.38175 34039 ft 457 kts 318°
2026-04-14 05:18 53.41172 129.31351 34043 ft 457 kts 318°
2026-04-14 05:18 53.46056 129.24509 34039 ft 457 kts 318°
2026-04-14 05:19 53.50906 129.17694 34036 ft 457 kts 318°
2026-04-14 05:19 53.55793 129.10804 34035 ft 459 kts 318°
2026-04-14 05:20 53.60685 129.03878 34035 ft 461 kts 318°
2026-04-14 05:20 53.65594 128.96906 34039 ft 462 kts 318°
2026-04-14 05:21 53.70512 128.89900 34039 ft 463 kts 318°
2026-04-14 05:21 53.75426 128.82879 34042 ft 463 kts 318°
2026-04-14 05:22 53.80339 128.75835 34042 ft 463 kts 317°
2026-04-14 05:22 53.85245 128.68778 34041 ft 462 kts 317°
2026-04-14 05:23 53.90135 128.61723 34036 ft 461 kts 317°
2026-04-14 05:23 53.95017 128.54656 34036 ft 461 kts 317°
2026-04-14 05:24 53.99893 128.47574 34045 ft 461 kts 317°
2026-04-14 05:24 54.04759 128.40485 34047 ft 460 kts 317°
2026-04-14 05:25 54.09589 128.33428 34050 ft 460 kts 317°
2026-04-14 05:25 54.14484 128.26266 34051 ft 460 kts 317°
2026-04-14 05:26 54.19306 128.19189 34057 ft 460 kts 317°
2026-04-14 05:26 54.24190 128.11998 34061 ft 461 kts 317°
2026-04-14 05:27 54.29045 128.04821 34054 ft 462 kts 317°
2026-04-14 05:27 54.33875 127.97661 34048 ft 463 kts 317°
2026-04-14 05:28 54.38743 127.90422 34043 ft 464 kts 317°
2026-04-14 05:28 54.43613 127.83155 34041 ft 464 kts 317°
2026-04-14 05:29 54.48486 127.75860 34038 ft 464 kts 317°
2026-04-14 05:29 54.53353 127.68550 34042 ft 464 kts 317°
2026-04-14 05:30 54.58190 127.61259 34038 ft 463 kts 317°
2026-04-14 05:30 54.63035 127.53934 34042 ft 463 kts 317°
2026-04-14 05:31 54.67875 127.46592 34032 ft 462 kts 317°
2026-04-14 05:31 54.72702 127.39244 34036 ft 462 kts 317°
2026-04-14 05:32 54.77526 127.31878 34033 ft 462 kts 317°
2026-04-14 05:32 54.82348 127.24513 34042 ft 462 kts 317°
2026-04-14 05:33 54.87255 127.17303 34035 ft 462 kts 318°
2026-04-14 05:33 54.92196 127.10149 34030 ft 462 kts 318°
2026-04-14 05:34 54.99584 126.99336 34033 ft 464 kts 318°
2026-04-14 05:34 55.04518 126.92044 34041 ft 465 kts 318°
2026-04-14 05:35 55.09429 126.84763 34024 ft 466 kts 318°
2026-04-14 05:35 55.14373 126.77412 34030 ft 467 kts 317°
2026-04-14 05:36 55.19312 126.70043 34023 ft 467 kts 317°
2026-04-14 05:36 55.24248 126.62654 34019 ft 466 kts 317°
2026-04-14 05:37 55.29169 126.55265 34026 ft 466 kts 317°
2026-04-14 05:37 55.34089 126.47852 34016 ft 465 kts 317°
2026-04-14 05:38 55.38992 126.40435 34019 ft 464 kts 317°
2026-04-14 05:38 55.43879 126.33015 34024 ft 463 kts 317°
2026-04-14 05:39 55.48729 126.25626 34038 ft 463 kts 317°
2026-04-14 05:39 55.53604 126.18176 34025 ft 463 kts 317°
2026-04-14 05:40 55.58472 126.10710 34022 ft 463 kts 317°
2026-04-14 05:40 55.63340 126.03216 34027 ft 464 kts 317°
2026-04-14 05:41 55.68212 125.95689 34024 ft 466 kts 317°
2026-04-14 05:41 55.73100 125.88117 34033 ft 467 kts 317°
2026-04-14 05:42 55.77958 125.80565 34024 ft 467 kts 316°
2026-04-14 05:42 55.82851 125.72930 34022 ft 467 kts 316°
2026-04-14 05:43 55.87738 125.65277 34021 ft 467 kts 316°
2026-04-14 05:43 55.92605 125.57627 34017 ft 466 kts 316°
2026-04-14 05:44 55.97461 125.49970 34019 ft 466 kts 316°
2026-04-14 05:44 56.02283 125.42340 34015 ft 465 kts 316°
2026-04-14 05:45 56.07124 125.34655 34010 ft 465 kts 316°
2026-04-14 05:45 56.11953 125.26955 34015 ft 465 kts 316°
2026-04-14 05:46 56.16780 125.19227 34012 ft 465 kts 316°
2026-04-14 05:46 56.21597 125.11489 33996 ft 465 kts 316°
2026-04-14 05:47 56.26423 125.03709 33991 ft 465 kts 316°
2026-04-14 05:47 56.31237 124.95917 33989 ft 466 kts 316°
2026-04-14 05:48 56.36055 124.88095 33989 ft 467 kts 316°
2026-04-14 05:48 56.40865 124.80268 33993 ft 468 kts 316°
2026-04-14 05:49 56.45712 124.72370 33971 ft 469 kts 316°
2026-04-14 05:49 56.50555 124.64452 33975 ft 469 kts 316°
2026-04-14 05:50 56.55394 124.56508 33965 ft 469 kts 315°
2026-04-14 05:50 56.60225 124.48546 33967 ft 468 kts 315°
2026-04-14 05:51 56.65010 124.40632 33963 ft 468 kts 315°
2026-04-14 05:51 56.69818 124.32651 33955 ft 467 kts 315°
2026-04-14 05:52 56.74612 124.24664 33958 ft 467 kts 315°
2026-04-14 05:52 56.78621 124.17962 33946 ft 467 kts 315°
2026-04-14 05:53 56.84177 124.08642 33963 ft 466 kts 315°
2026-04-14 05:53 56.88951 124.00603 33926 ft 467 kts 315°
2026-04-14 05:54 56.92918 123.93900 33941 ft 466 kts 315°
2026-04-14 05:54 56.98485 123.84452 33918 ft 467 kts 315°
2026-04-14 05:55 57.03227 123.76381 33924 ft 468 kts 315°
2026-04-14 05:55 57.08004 123.68220 33925 ft 469 kts 315°
2026-04-14 05:56 57.12768 123.60032 33917 ft 469 kts 315°
2026-04-14 05:56 57.16733 123.53196 33905 ft 469 kts 315°
2026-04-14 05:57 57.21493 123.44961 33909 ft 469 kts 314°
2026-04-14 05:57 57.26246 123.36705 33902 ft 468 kts 314°
2026-04-14 05:58 57.30990 123.28435 33910 ft 468 kts 314°
2026-04-14 05:58 57.35692 123.20206 33895 ft 468 kts 314°
2026-04-14 05:59 57.40417 123.11903 33899 ft 467 kts 314°
2026-04-14 05:59 57.45129 123.03593 33880 ft 467 kts 314°
2026-04-14 06:00 57.49838 122.95258 33892 ft 467 kts 314°
2026-04-14 06:00 57.54547 122.86894 33882 ft 467 kts 314°
2026-04-14 06:01 57.59217 122.78567 33867 ft 467 kts 314°
2026-04-14 06:01 57.63909 122.70167 33877 ft 467 kts 314°
2026-04-14 06:02 57.68594 122.61746 33864 ft 468 kts 314°
2026-04-14 06:02 57.73300 122.53259 33884 ft 469 kts 313°
2026-04-14 06:03 57.77971 122.44805 33864 ft 470 kts 313°
2026-04-14 06:04 57.85015 122.31991 33863 ft 470 kts 313°
2026-04-14 06:04 57.89700 122.23427 33860 ft 470 kts 313°
2026-04-14 06:05 57.94379 122.14842 33871 ft 470 kts 313°
2026-04-14 06:05 57.99057 122.06227 33852 ft 470 kts 313°
2026-04-14 06:06 58.03727 121.97591 33851 ft 470 kts 313°
2026-04-14 06:06 58.08392 121.88931 33852 ft 470 kts 313°
2026-04-14 06:07 58.13027 121.80295 33846 ft 470 kts 313°
2026-04-14 06:07 58.17712 121.71531 33841 ft 470 kts 313°
2026-04-14 06:08 58.22335 121.62848 33833 ft 471 kts 313°
2026-04-14 06:08 58.26984 121.54082 33835 ft 471 kts 312°
2026-04-14 06:09 58.31625 121.45299 33849 ft 470 kts 312°
2026-04-14 06:09 58.36263 121.36485 33823 ft 471 kts 312°
2026-04-14 06:10 58.40890 121.27658 33839 ft 471 kts 312°
2026-04-14 06:10 58.45487 121.18856 33838 ft 471 kts 312°
2026-04-14 06:11 58.50118 121.09953 33830 ft 471 kts 312°
2026-04-14 06:11 58.54733 121.01045 33831 ft 471 kts 312°
2026-04-14 06:12 58.59343 120.92112 33832 ft 471 kts 312°
2026-04-14 06:12 58.63943 120.83163 33830 ft 469 kts 311°
2026-04-14 06:13 58.68044 120.73741 33835 ft 464 kts 303°
2026-04-14 06:13 58.71768 120.63448 33833 ft 471 kts 302°
2026-04-14 06:14 58.75592 120.53224 33824 ft 470 kts 304°
2026-04-14 06:14 58.79601 120.43270 33821 ft 469 kts 306°
2026-04-14 06:15 58.83609 120.33352 33829 ft 468 kts 305°
2026-04-14 06:15 58.87530 120.23303 33828 ft 468 kts 304°
2026-04-14 06:16 58.91403 120.13171 33838 ft 468 kts 304°
2026-04-14 06:16 58.95266 120.03012 33828 ft 468 kts 304°
2026-04-14 06:17 58.99129 119.92842 33859 ft 469 kts 304°
2026-04-14 06:17 59.02971 119.82694 33840 ft 470 kts 303°
2026-04-14 06:18 59.06832 119.72450 33836 ft 470 kts 303°
2026-04-14 06:18 59.10687 119.62181 33844 ft 470 kts 303°
2026-04-14 06:19 59.14527 119.51890 33838 ft 470 kts 303°
2026-04-14 06:19 59.18359 119.41557 33860 ft 471 kts 303°
2026-04-14 06:20 59.22191 119.31172 33843 ft 471 kts 303°
2026-04-14 06:20 59.26026 119.20740 33844 ft 472 kts 303°
2026-04-14 06:21 59.29826 119.10362 33843 ft 472 kts 303°
2026-04-14 06:21 59.33640 118.99898 33842 ft 472 kts 303°
2026-04-14 06:22 59.37449 118.89399 33855 ft 472 kts 303°
2026-04-14 06:22 59.41221 118.78957 33838 ft 472 kts 303°
2026-04-14 06:23 59.45011 118.68418 33834 ft 472 kts 302°
2026-04-14 06:23 59.48788 118.57866 33823 ft 471 kts 302°
2026-04-14 06:24 59.52551 118.47307 33838 ft 471 kts 302°
2026-04-14 06:24 59.56311 118.36710 33819 ft 471 kts 302°
2026-04-14 06:25 59.60057 118.26105 33823 ft 471 kts 302°
2026-04-14 06:25 59.63792 118.15482 33815 ft 471 kts 302°
2026-04-14 06:26 59.67515 118.04844 33819 ft 470 kts 302°
2026-04-14 06:26 59.71230 117.94180 33819 ft 470 kts 302°
2026-04-14 06:27 59.74936 117.83495 33816 ft 471 kts 302°
2026-04-14 06:27 59.78638 117.72774 33814 ft 471 kts 302°
2026-04-14 06:28 59.82307 117.62094 33863 ft 473 kts 301°
2026-04-14 06:28 59.84165 117.56669 34058 ft 473 kts 301°
2026-04-14 06:28 59.86013 117.51262 34379 ft 472 kts 301°
2026-04-14 06:28 59.87856 117.45861 34680 ft 471 kts 301°
2026-04-14 06:29 59.89692 117.40463 34953 ft 470 kts 301°
2026-04-14 06:29 59.91517 117.35049 35217 ft 470 kts 301°
2026-04-14 06:29 59.93338 117.29608 35448 ft 471 kts 301°
2026-04-14 06:29 59.95146 117.24176 35666 ft 471 kts 301°
2026-04-14 06:30 59.96934 117.18789 35718 ft 473 kts 301°
2026-04-14 06:30 60.00574 117.07795 35785 ft 472 kts 301°
2026-04-14 06:31 60.04188 116.96851 35802 ft 471 kts 301°
2026-04-14 06:31 60.07784 116.85910 35804 ft 470 kts 300°
2026-04-14 06:32 60.11369 116.74949 35807 ft 470 kts 300°
2026-04-14 06:32 60.14949 116.63955 35803 ft 470 kts 300°
2026-04-14 06:33 60.18520 116.52937 35812 ft 471 kts 300°
2026-04-14 06:33 60.22085 116.41880 35815 ft 471 kts 300°
2026-04-14 06:34 60.27404 116.25288 35818 ft 473 kts 300°
2026-04-14 06:34 60.30981 116.14063 35820 ft 473 kts 300°
2026-04-14 06:35 60.34512 116.02936 35813 ft 473 kts 300°
2026-04-14 06:35 60.38051 115.91713 35818 ft 473 kts 300°
2026-04-14 06:36 60.41564 115.80467 35817 ft 473 kts 299°
2026-04-14 06:36 60.45069 115.69185 35824 ft 473 kts 299°
2026-04-14 06:37 60.48570 115.57865 35825 ft 473 kts 299°
2026-04-14 06:37 60.52057 115.46544 35825 ft 473 kts 299°
2026-04-14 06:38 60.55534 115.35202 35818 ft 473 kts 299°
2026-04-14 06:38 60.58995 115.23852 35821 ft 472 kts 299°
2026-04-14 06:39 60.62450 115.12466 35810 ft 473 kts 299°
2026-04-14 06:39 60.65891 115.01070 35811 ft 473 kts 299°
2026-04-14 06:40 60.69329 114.89632 35810 ft 473 kts 299°
2026-04-14 06:40 60.72183 114.80103 35823 ft 473 kts 299°
2026-04-14 06:41 60.76427 114.66966 35816 ft 474 kts 302°
2026-04-14 06:41 60.80162 114.55926 35810 ft 475 kts 302°
2026-04-14 06:42 60.83891 114.44764 35805 ft 475 kts 302°
2026-04-14 06:42 60.87601 114.33449 35805 ft 475 kts 301°
2026-04-14 06:43 60.91236 114.22246 35805 ft 475 kts 301°
2026-04-14 06:43 60.94887 114.10934 35797 ft 475 kts 301°
2026-04-14 06:44 60.98534 113.99594 35807 ft 475 kts 301°
2026-04-14 06:44 61.02177 113.88220 35802 ft 475 kts 301°
2026-04-14 06:45 61.05807 113.76830 35794 ft 475 kts 301°
2026-04-14 06:45 61.09431 113.65401 35793 ft 475 kts 301°
2026-04-14 06:46 61.14243 113.50139 35808 ft 476 kts 301°
2026-04-14 06:47 61.17844 113.38646 35797 ft 476 kts 301°
2026-04-14 06:47 61.21441 113.27112 35794 ft 476 kts 301°
2026-04-14 06:48 61.25028 113.15557 35797 ft 476 kts 300°
2026-04-14 06:48 61.28605 113.03973 35799 ft 476 kts 300°
2026-04-14 06:49 61.32167 112.92375 35818 ft 476 kts 300°
2026-04-14 06:49 61.35726 112.80728 35806 ft 476 kts 300°
2026-04-14 06:50 61.39271 112.69071 35804 ft 476 kts 300°
2026-04-14 06:50 61.42785 112.57458 35808 ft 476 kts 300°
2026-04-14 06:51 61.46335 112.45668 35824 ft 476 kts 300°
2026-04-14 06:51 61.49823 112.34021 35832 ft 476 kts 300°
2026-04-14 06:52 61.53326 112.22260 35830 ft 476 kts 300°
2026-04-14 06:52 61.56820 112.10472 35825 ft 476 kts 300°
2026-04-14 06:53 61.60302 111.98666 35826 ft 476 kts 300°
2026-04-14 06:53 61.63776 111.86826 35828 ft 476 kts 300°
2026-04-14 06:54 61.67238 111.74960 35844 ft 476 kts 300°
2026-04-14 06:54 61.70693 111.63062 35832 ft 476 kts 300°
2026-04-14 06:55 61.74139 111.51138 35832 ft 476 kts 299°
2026-04-14 06:55 61.77580 111.39164 35831 ft 477 kts 299°
2026-04-14 06:56 61.80988 111.27242 35835 ft 477 kts 299°
2026-04-14 06:56 61.84411 111.15208 35833 ft 477 kts 299°
2026-04-14 06:57 61.87826 111.03134 35835 ft 477 kts 299°
2026-04-14 06:57 61.91232 110.91034 35835 ft 478 kts 299°
2026-04-14 06:58 61.94628 110.78898 35836 ft 478 kts 299°
2026-04-14 06:58 61.97991 110.66817 35836 ft 478 kts 298°
2026-04-14 06:59 62.01365 110.54631 35846 ft 478 kts 298°
2026-04-14 06:59 62.04728 110.42418 35840 ft 478 kts 298°
2026-04-14 07:00 62.08077 110.30192 35838 ft 477 kts 298°
2026-04-14 07:00 62.11418 110.17929 35842 ft 477 kts 298°
2026-04-14 07:01 62.14746 110.05646 35838 ft 477 kts 298°
2026-04-14 07:01 62.18061 109.93346 35850 ft 477 kts 298°
2026-04-14 07:02 62.21344 109.81093 35844 ft 477 kts 298°
2026-04-14 07:02 62.24635 109.68745 35845 ft 477 kts 298°
2026-04-14 07:03 62.27918 109.56358 35843 ft 477 kts 298°
2026-04-14 07:03 62.31188 109.43953 35847 ft 477 kts 298°
2026-04-14 07:04 62.34446 109.31525 35859 ft 477 kts 298°
2026-04-14 07:04 62.37697 109.19051 35836 ft 477 kts 298°
2026-04-14 07:05 62.40910 109.06653 35851 ft 477 kts 297°
2026-04-14 07:05 62.44135 108.94144 35860 ft 477 kts 297°
2026-04-14 07:06 62.47351 108.81597 35852 ft 477 kts 297°
2026-04-14 07:06 62.50561 108.69004 35853 ft 477 kts 297°
2026-04-14 07:07 62.53759 108.56381 35854 ft 478 kts 297°
2026-04-14 07:07 62.56927 108.43809 35864 ft 478 kts 297°
2026-04-14 07:08 62.60107 108.31117 35863 ft 478 kts 297°
2026-04-14 07:08 62.63274 108.18405 35870 ft 478 kts 297°
2026-04-14 07:09 62.66432 108.05655 35871 ft 478 kts 297°
2026-04-14 07:09 62.69576 107.92884 35881 ft 479 kts 297°
2026-04-14 07:10 62.72691 107.80157 35877 ft 479 kts 297°
2026-04-14 07:10 62.75812 107.67336 35880 ft 478 kts 297°
2026-04-14 07:11 62.78924 107.54471 35884 ft 478 kts 296°
2026-04-14 07:11 62.82026 107.41575 35892 ft 478 kts 296°
2026-04-14 07:12 62.84590 107.30856 35890 ft 478 kts 296°
2026-04-14 07:12 62.88188 107.15724 35897 ft 478 kts 296°
2026-04-14 07:13 62.91228 107.02867 35899 ft 478 kts 296°
2026-04-14 07:13 62.94308 106.89938 35901 ft 478 kts 297°
2026-04-14 07:14 62.97436 106.77051 35900 ft 478 kts 297°
2026-04-14 07:14 63.00561 106.64130 35911 ft 478 kts 297°
2026-04-14 07:15 63.03662 106.51178 35908 ft 477 kts 297°
2026-04-14 07:15 63.06741 106.38211 35912 ft 477 kts 297°
2026-04-14 07:16 63.09808 106.25208 35909 ft 477 kts 297°
2026-04-14 07:16 63.12862 106.12188 35914 ft 477 kts 296°
2026-04-14 07:17 63.15908 105.99126 35919 ft 477 kts 296°
2026-04-14 07:17 63.18922 105.86121 35915 ft 478 kts 296°
2026-04-14 07:18 63.21945 105.73002 35912 ft 478 kts 296°
2026-04-14 07:18 63.24955 105.59856 35912 ft 478 kts 296°
2026-04-14 07:19 63.27957 105.46667 35913 ft 478 kts 296°
2026-04-14 07:19 63.30943 105.33465 35918 ft 478 kts 296°
2026-04-14 07:20 63.33913 105.20251 35911 ft 478 kts 296°
2026-04-14 07:20 63.36874 105.06998 35913 ft 477 kts 296°
2026-04-14 07:21 63.39818 104.93738 35907 ft 477 kts 296°
2026-04-14 07:21 63.42747 104.80468 35916 ft 476 kts 296°
2026-04-14 07:22 63.45643 104.67260 35919 ft 476 kts 296°
2026-04-14 07:22 63.48547 104.53929 35917 ft 476 kts 295°
2026-04-14 07:23 63.51434 104.40594 35921 ft 476 kts 295°
2026-04-14 07:23 63.54311 104.27222 35916 ft 477 kts 295°
2026-04-14 07:24 63.57182 104.13801 35922 ft 477 kts 295°
2026-04-14 07:24 63.60040 104.00356 35926 ft 477 kts 295°
2026-04-14 07:25 63.62881 103.86898 35922 ft 477 kts 295°
2026-04-14 07:25 63.65696 103.73479 35929 ft 476 kts 295°
2026-04-14 07:26 63.68514 103.59967 35926 ft 476 kts 295°
2026-04-14 07:26 63.71316 103.46444 35928 ft 476 kts 295°
2026-04-14 07:27 63.74103 103.32900 35942 ft 475 kts 295°
2026-04-14 07:27 63.76881 103.19308 35929 ft 476 kts 295°
2026-04-14 07:28 63.79642 103.05713 35936 ft 476 kts 295°
2026-04-14 07:28 63.82396 102.92066 35940 ft 476 kts 295°
2026-04-14 07:29 63.85138 102.78394 35933 ft 477 kts 294°
2026-04-14 07:29 63.87856 102.64743 35941 ft 477 kts 294°
2026-04-14 07:30 63.90577 102.50984 35939 ft 477 kts 294°
2026-04-14 07:30 63.93287 102.37186 35942 ft 477 kts 294°
2026-04-14 07:31 63.95981 102.23382 35953 ft 477 kts 294°
2026-04-14 07:31 63.98647 102.09629 35944 ft 477 kts 294°
2026-04-14 07:32 64.01312 101.95780 35948 ft 477 kts 294°
2026-04-14 07:32 64.03967 101.81894 35943 ft 477 kts 294°
2026-04-14 07:33 64.06611 101.67962 35953 ft 477 kts 294°
2026-04-14 07:33 64.08791 101.56404 35953 ft 477 kts 294°
2026-04-14 07:34 64.14005 101.28496 35954 ft 476 kts 294°
2026-04-14 07:35 64.17012 101.12218 35956 ft 476 kts 293°
2026-04-14 07:35 64.19146 101.00581 35950 ft 476 kts 294°
2026-04-14 07:36 64.21702 100.86552 35955 ft 476 kts 294°
2026-04-14 07:36 64.24242 100.72518 35956 ft 476 kts 293°
2026-04-14 07:37 64.26773 100.58435 35951 ft 475 kts 293°
2026-04-14 07:37 64.29274 100.44428 35960 ft 475 kts 293°
2026-04-14 07:38 64.31647 100.30236 35968 ft 475 kts 291°
2026-04-14 07:38 64.33910 100.15898 35961 ft 476 kts 291°
2026-04-14 07:39 64.36176 100.01554 35962 ft 476 kts 291°
2026-04-14 07:39 64.38455 99.87173 35963 ft 477 kts 291°
2026-04-14 07:40 64.40722 99.72781 35961 ft 477 kts 291°
2026-04-14 07:40 64.42974 99.58347 35960 ft 477 kts 291°
2026-04-14 07:41 64.45213 99.43881 35968 ft 476 kts 291°
2026-04-14 07:41 64.47447 99.29425 35973 ft 476 kts 291°
2026-04-14 07:42 64.49668 99.15046 35974 ft 476 kts 291°
2026-04-14 07:42 64.51890 99.00544 35982 ft 476 kts 291°
2026-04-14 07:43 64.54093 98.86034 35971 ft 476 kts 291°
2026-04-14 07:43 64.56268 98.71575 35984 ft 475 kts 290°
2026-04-14 07:44 64.58439 98.57030 35988 ft 475 kts 290°
2026-04-14 07:44 64.60593 98.42477 35987 ft 475 kts 290°
2026-04-14 07:45 64.62732 98.27907 35989 ft 474 kts 290°
2026-04-14 07:45 64.64854 98.13336 35996 ft 474 kts 290°
2026-04-14 07:46 64.66962 97.98732 35992 ft 474 kts 290°
2026-04-14 07:46 64.69055 97.84115 35995 ft 474 kts 290°
2026-04-14 07:47 64.71123 97.69551 35996 ft 474 kts 290°
2026-04-14 07:47 64.73187 97.54887 36004 ft 475 kts 290°
2026-04-14 07:48 64.75240 97.40179 36005 ft 475 kts 289°
2026-04-14 07:48 64.77278 97.25452 36008 ft 475 kts 289°
2026-04-14 07:49 64.79304 97.10680 36015 ft 475 kts 289°
2026-04-14 07:49 64.81315 96.95886 36014 ft 476 kts 289°
2026-04-14 07:50 64.83312 96.81070 36019 ft 476 kts 289°
2026-04-14 07:50 64.85283 96.66312 36019 ft 476 kts 289°
2026-04-14 07:51 64.87253 96.51438 36011 ft 476 kts 289°
2026-04-14 07:51 64.89209 96.36531 36017 ft 476 kts 289°
2026-04-14 07:52 64.91144 96.21644 36018 ft 475 kts 288°
2026-04-14 07:52 64.93066 96.06722 36027 ft 475 kts 288°
2026-04-14 07:53 64.94972 95.91794 36025 ft 475 kts 288°
2026-04-14 07:53 64.96853 95.76920 36035 ft 475 kts 288°
2026-04-14 07:54 64.98731 95.61937 36027 ft 475 kts 288°
2026-04-14 07:54 65.00591 95.46947 36044 ft 475 kts 288°
2026-04-14 07:55 65.02436 95.31940 36040 ft 475 kts 288°
2026-04-14 07:55 65.04258 95.16982 36049 ft 475 kts 288°
2026-04-14 07:56 65.06072 95.01943 36051 ft 475 kts 287°
2026-04-14 07:56 65.07875 94.86844 36050 ft 475 kts 287°
2026-04-14 07:57 65.09657 94.71776 36057 ft 475 kts 287°
2026-04-14 07:57 65.11426 94.56674 36064 ft 475 kts 287°
2026-04-14 07:58 65.13183 94.41545 36064 ft 475 kts 287°
2026-04-14 07:58 65.14964 94.26410 36057 ft 475 kts 288°
2026-04-14 07:59 65.16847 94.11449 36046 ft 475 kts 288°
2026-04-14 07:59 65.18752 93.96422 36059 ft 474 kts 288°
2026-04-14 08:00 65.20625 93.81363 36062 ft 474 kts 288°
2026-04-14 08:00 65.22471 93.66242 36065 ft 474 kts 288°
2026-04-14 08:01 65.24294 93.51124 36067 ft 474 kts 288°
2026-04-14 08:01 65.26105 93.35967 36068 ft 475 kts 287°
2026-04-14 08:02 65.27900 93.20808 36061 ft 475 kts 287°
2026-04-14 08:02 65.29683 93.05608 36063 ft 475 kts 287°
2026-04-14 08:03 65.31437 92.90494 36060 ft 475 kts 287°
2026-04-14 08:03 65.33192 92.75226 36059 ft 475 kts 287°
2026-04-14 08:04 65.34928 92.59969 36061 ft 475 kts 287°
2026-04-14 08:04 65.36646 92.44710 36046 ft 475 kts 287°
2026-04-14 08:05 65.38355 92.29377 36055 ft 475 kts 287°
2026-04-14 08:05 65.40032 92.14171 36056 ft 475 kts 286°
2026-04-14 08:06 65.41709 91.98805 36066 ft 475 kts 286°
2026-04-14 08:06 65.43368 91.83448 36068 ft 475 kts 286°
2026-04-14 08:07 65.45011 91.68071 36062 ft 475 kts 286°
2026-04-14 08:07 65.46638 91.52678 36053 ft 475 kts 286°
2026-04-14 08:08 65.48249 91.37270 36059 ft 475 kts 286°
2026-04-14 08:08 65.49838 91.21910 36058 ft 475 kts 285°
2026-04-14 08:09 65.51420 91.06439 36058 ft 475 kts 285°
2026-04-14 08:09 65.52986 90.90954 36068 ft 475 kts 285°
2026-04-14 08:10 65.54536 90.75455 36072 ft 475 kts 285°
2026-04-14 08:10 65.56072 90.59918 36072 ft 476 kts 285°
2026-04-14 08:11 65.57594 90.44351 36067 ft 476 kts 285°
2026-04-14 08:11 65.59098 90.28778 36075 ft 475 kts 285°
2026-04-14 08:12 65.60573 90.13320 36062 ft 475 kts 285°
2026-04-14 08:12 65.62040 89.97765 36065 ft 474 kts 284°
2026-04-14 08:13 65.63491 89.82196 36068 ft 474 kts 284°
2026-04-14 08:13 65.64930 89.66583 36068 ft 474 kts 284°
2026-04-14 08:14 65.66350 89.50965 36075 ft 475 kts 284°
2026-04-14 08:14 65.67757 89.35307 36070 ft 475 kts 284°
2026-04-14 08:15 65.69149 89.19614 36071 ft 475 kts 284°
2026-04-14 08:15 65.70528 89.03910 36080 ft 475 kts 284°
2026-04-14 08:16 65.71895 88.88286 36082 ft 476 kts 284°
2026-04-14 08:16 65.73287 88.72552 36089 ft 476 kts 284°
2026-04-14 08:17 65.74668 88.56777 36078 ft 476 kts 284°
2026-04-14 08:17 65.76027 88.40985 36076 ft 476 kts 284°
2026-04-14 08:18 65.77365 88.25198 36061 ft 476 kts 284°
2026-04-14 08:18 65.78679 88.09509 36077 ft 475 kts 284°
2026-04-14 08:19 65.79969 87.93749 36073 ft 472 kts 282°
2026-04-14 08:19 65.80697 87.77826 36085 ft 474 kts 277°
2026-04-14 08:20 65.81236 87.61774 36084 ft 477 kts 277°
2026-04-14 08:20 65.81965 87.45654 36084 ft 479 kts 279°
2026-04-14 08:21 65.82807 87.29469 36080 ft 481 kts 279°
2026-04-14 08:21 65.83574 87.13241 36077 ft 482 kts 278°
2026-04-14 08:22 65.84258 86.96965 36067 ft 481 kts 278°
2026-04-14 08:22 65.84894 86.80852 36071 ft 479 kts 278°
2026-04-14 08:23 65.85417 86.67297 36065 ft 478 kts 278°
2026-04-14 08:23 65.86129 86.48536 36061 ft 476 kts 278°
2026-04-14 08:24 65.86625 86.35130 36064 ft 476 kts 278°
2026-04-14 08:24 65.87208 86.19029 36077 ft 476 kts 278°
2026-04-14 08:25 65.87775 86.02886 36070 ft 477 kts 277°
2026-04-14 08:25 65.88325 85.86699 36070 ft 477 kts 277°
2026-04-14 08:26 65.88858 85.70492 36040 ft 478 kts 277°
2026-04-14 08:26 65.89372 85.54292 36078 ft 478 kts 277°
2026-04-14 08:27 65.89871 85.38046 36063 ft 479 kts 277°
2026-04-14 08:27 65.90353 85.21862 36064 ft 479 kts 277°
2026-04-14 08:28 65.90819 85.05574 36073 ft 480 kts 277°
2026-04-14 08:28 65.91268 84.89277 36071 ft 480 kts 277°
2026-04-14 08:29 65.91698 84.72982 36059 ft 480 kts 277°
2026-04-14 08:29 65.92111 84.56681 36061 ft 480 kts 277°
2026-04-14 08:30 65.92508 84.40393 36075 ft 479 kts 277°
2026-04-14 08:30 65.92888 84.24111 36076 ft 478 kts 276°
2026-04-14 08:31 65.93249 84.07852 36088 ft 478 kts 276°
2026-04-14 08:31 65.93757 83.83513 36069 ft 478 kts 276°
2026-04-14 08:32 65.94075 83.67242 36075 ft 478 kts 276°
2026-04-14 08:32 65.94377 83.50972 36076 ft 478 kts 276°
2026-04-14 08:33 65.94662 83.34681 36082 ft 478 kts 276°
2026-04-14 08:33 65.94931 83.18401 36078 ft 478 kts 276°
2026-04-14 08:34 65.95180 83.02103 36080 ft 478 kts 276°
2026-04-14 08:34 65.95411 82.85908 36076 ft 478 kts 276°
2026-04-14 08:35 65.95629 82.69619 36080 ft 478 kts 276°
2026-04-14 08:35 65.95831 82.53312 36079 ft 478 kts 275°
2026-04-14 08:36 65.96015 82.36963 36077 ft 479 kts 275°
2026-04-14 08:36 65.96181 82.20624 36057 ft 478 kts 275°
2026-04-14 08:37 65.96329 82.04315 36075 ft 478 kts 275°
2026-04-14 08:37 65.96460 81.88079 36083 ft 478 kts 275°
2026-04-14 08:38 65.96575 81.71775 36090 ft 478 kts 275°
2026-04-14 08:38 65.96673 81.55448 36088 ft 478 kts 275°
2026-04-14 08:39 65.96752 81.39122 36084 ft 478 kts 275°
2026-04-14 08:39 65.96814 81.22802 36086 ft 478 kts 275°
2026-04-14 08:40 65.96859 81.06505 36091 ft 478 kts 275°
2026-04-14 08:40 65.96887 80.90197 36095 ft 478 kts 275°
2026-04-14 08:41 65.96898 80.73989 36091 ft 478 kts 274°
2026-04-14 08:41 65.96892 80.57700 36092 ft 478 kts 274°
2026-04-14 08:42 65.96868 80.41365 36093 ft 479 kts 274°
2026-04-14 08:42 65.96827 80.25006 36101 ft 479 kts 274°
2026-04-14 08:43 65.96769 80.08670 36099 ft 479 kts 274°
2026-04-14 08:43 65.96693 79.92301 36099 ft 480 kts 274°
2026-04-14 08:44 65.96600 79.76000 36105 ft 480 kts 274°
2026-04-14 08:44 65.96488 79.59640 36082 ft 479 kts 274°
2026-04-14 08:45 65.96359 79.43292 36097 ft 479 kts 274°
2026-04-14 08:45 65.96215 79.26968 36113 ft 479 kts 273°
2026-04-14 08:46 65.96053 79.10618 36109 ft 479 kts 273°
2026-04-14 08:46 65.95874 78.94296 36113 ft 479 kts 273°
2026-04-14 08:47 65.95676 78.77928 36062 ft 479 kts 273°
2026-04-14 08:47 65.95461 78.61602 36108 ft 478 kts 273°
2026-04-14 08:48 65.95233 78.45305 36117 ft 478 kts 273°
2026-04-14 08:48 65.94992 78.28994 36119 ft 478 kts 273°
2026-04-14 08:49 65.94763 78.12805 36119 ft 478 kts 273°
2026-04-14 08:49 65.94525 77.96484 36120 ft 478 kts 273°
2026-04-14 08:50 65.94267 77.80213 36124 ft 477 kts 273°
2026-04-14 08:50 65.93990 77.63947 36125 ft 477 kts 272°
2026-04-14 08:51 65.93695 77.47692 36135 ft 477 kts 272°
2026-04-14 08:51 65.93383 77.31433 36133 ft 478 kts 272°
2026-04-14 08:52 65.93054 77.15197 36139 ft 478 kts 272°
2026-04-14 08:52 65.92709 76.99028 36117 ft 477 kts 272°
2026-04-14 08:53 65.92344 76.82808 36137 ft 477 kts 272°
2026-04-14 08:53 65.91965 76.66604 36149 ft 477 kts 272°
2026-04-14 08:54 65.91568 76.50395 36155 ft 477 kts 272°
2026-04-14 08:54 65.91154 76.34158 36154 ft 477 kts 272°
2026-04-14 08:55 65.90722 76.17941 36109 ft 477 kts 271°
2026-04-14 08:55 65.90272 76.01762 36151 ft 476 kts 271°
2026-04-14 08:56 65.89809 75.85640 36163 ft 476 kts 271°
2026-04-14 08:56 65.89328 75.69481 36168 ft 476 kts 271°
2026-04-14 08:57 65.88828 75.53274 36164 ft 477 kts 271°
2026-04-14 08:57 65.88311 75.37092 36166 ft 477 kts 271°
2026-04-14 08:58 65.87780 75.21047 36166 ft 476 kts 271°
2026-04-14 08:58 65.87230 75.04900 36174 ft 476 kts 271°
2026-04-14 08:59 65.86665 74.88779 36180 ft 476 kts 271°
2026-04-14 08:59 65.86081 74.72624 36184 ft 477 kts 270°
2026-04-14 09:00 65.85481 74.56456 36189 ft 477 kts 270°
2026-04-14 09:00 65.84876 74.40435 36163 ft 476 kts 271°
2026-04-14 09:01 65.84314 74.24315 36189 ft 476 kts 271°
2026-04-14 09:01 65.83753 74.08210 36204 ft 476 kts 271°
2026-04-14 09:02 65.83165 73.92101 36205 ft 476 kts 270°
2026-04-14 09:02 65.82554 73.75981 36209 ft 477 kts 270°
2026-04-14 09:03 65.81932 73.59969 36150 ft 477 kts 270°
2026-04-14 09:03 65.81275 73.43897 36214 ft 476 kts 269°
2026-04-14 09:04 65.80588 73.27827 36220 ft 476 kts 269°
2026-04-14 09:04 65.79886 73.11759 36220 ft 477 kts 269°
2026-04-14 09:05 65.79171 72.95686 36223 ft 477 kts 269°
2026-04-14 09:05 65.78439 72.79599 36223 ft 477 kts 269°
2026-04-14 09:06 65.77693 72.63558 36224 ft 477 kts 268°
2026-04-14 09:06 65.76929 72.47525 36237 ft 477 kts 268°
2026-04-14 09:07 65.76151 72.31457 36238 ft 477 kts 268°
2026-04-14 09:07 65.75361 72.15421 36239 ft 478 kts 268°
2026-04-14 09:08 65.74558 71.99465 36242 ft 478 kts 268°
2026-04-14 09:08 65.73734 71.83423 36243 ft 478 kts 268°
2026-04-14 09:09 65.72891 71.67381 36247 ft 478 kts 268°
2026-04-14 09:09 65.72030 71.51316 36248 ft 478 kts 267°
2026-04-14 09:10 65.71154 71.35291 36253 ft 478 kts 267°
2026-04-14 09:10 65.70262 71.19278 36253 ft 478 kts 267°
2026-04-14 09:11 65.69357 71.03355 36220 ft 478 kts 266°
2026-04-14 09:11 65.68433 70.87388 36256 ft 478 kts 266°
2026-04-14 09:12 65.67646 70.74013 36265 ft 478 kts 266°
2026-04-14 09:12 65.66534 70.55480 36266 ft 478 kts 266°
2026-04-14 09:13 65.65678 70.42249 36276 ft 479 kts 265°
2026-04-14 09:13 65.64602 70.26290 36274 ft 480 kts 265°
2026-04-14 09:14 65.63514 70.10321 36273 ft 480 kts 264°
2026-04-14 09:14 65.62416 69.94356 36285 ft 481 kts 264°
2026-04-14 09:15 65.61302 69.78384 36286 ft 481 kts 264°
2026-04-14 09:15 65.60170 69.62416 36293 ft 482 kts 264°
2026-04-14 09:16 65.59020 69.46449 36296 ft 482 kts 264°
2026-04-14 09:16 65.57854 69.30500 36282 ft 481 kts 264°
2026-04-14 09:17 65.56673 69.14588 36295 ft 481 kts 264°
2026-04-14 09:17 65.55476 68.98694 36302 ft 481 kts 263°
2026-04-14 09:18 65.54263 68.82830 36301 ft 481 kts 263°
2026-04-14 09:18 65.53040 68.67056 36307 ft 481 kts 263°
2026-04-14 09:19 65.51793 68.51200 36270 ft 481 kts 263°
2026-04-14 09:19 65.50531 68.35391 36301 ft 480 kts 263°
2026-04-14 09:20 65.49252 68.19576 36310 ft 480 kts 263°
2026-04-14 09:20 65.47957 68.03794 36299 ft 481 kts 263°
2026-04-14 09:21 65.46645 67.88007 36307 ft 481 kts 263°
2026-04-14 09:21 65.45314 67.72217 36305 ft 481 kts 262°
2026-04-14 09:22 65.43976 67.56551 36301 ft 480 kts 262°
2026-04-14 09:22 65.42616 67.40832 36308 ft 481 kts 262°
2026-04-14 09:23 65.41239 67.25124 36309 ft 481 kts 262°
2026-04-14 09:23 65.39844 67.09401 36307 ft 481 kts 262°
2026-04-14 09:24 65.38433 66.93698 36309 ft 481 kts 262°
2026-04-14 09:24 65.37006 66.78010 36311 ft 481 kts 262°
2026-04-14 09:25 65.35562 66.62315 36314 ft 481 kts 262°
2026-04-14 09:25 65.34123 66.46646 36317 ft 481 kts 262°
2026-04-14 09:26 65.32689 66.31079 36314 ft 482 kts 262°
2026-04-14 09:26 65.31228 66.15433 36316 ft 482 kts 261°
2026-04-14 09:27 65.29747 65.99794 36289 ft 482 kts 262°
2026-04-14 09:27 65.28252 65.84177 36307 ft 482 kts 261°
2026-04-14 09:28 65.26733 65.68569 36316 ft 482 kts 261°
2026-04-14 09:28 65.25183 65.52958 36319 ft 483 kts 261°
2026-04-14 09:29 65.23625 65.37429 36319 ft 484 kts 261°
2026-04-14 09:29 65.22045 65.21831 36277 ft 484 kts 261°
2026-04-14 09:30 65.20445 65.06235 36311 ft 484 kts 261°
2026-04-14 09:30 65.18832 64.90654 36325 ft 484 kts 261°
2026-04-14 09:31 65.17208 64.75126 36322 ft 484 kts 261°
2026-04-14 09:31 65.15563 64.59583 36307 ft 484 kts 261°
2026-04-14 09:32 65.13914 64.44186 36323 ft 484 kts 261°
2026-04-14 09:33 65.11395 64.21005 36319 ft 482 kts 261°
2026-04-14 09:33 65.09701 64.05588 36327 ft 482 kts 261°
2026-04-14 09:34 65.07994 63.90206 36324 ft 482 kts 261°
2026-04-14 09:34 65.06272 63.74865 36330 ft 482 kts 261°
2026-04-14 09:35 65.04537 63.59576 36334 ft 482 kts 260°
2026-04-14 09:35 65.02774 63.44202 36329 ft 482 kts 260°
2026-04-14 09:36 65.01011 63.28979 36331 ft 482 kts 260°
2026-04-14 09:36 64.99222 63.13688 36334 ft 483 kts 260°
2026-04-14 09:37 64.97416 62.98403 36338 ft 483 kts 260°
2026-04-14 09:37 64.95592 62.83122 36295 ft 483 kts 259°
2026-04-14 09:38 64.93756 62.67903 36336 ft 482 kts 260°
2026-04-14 09:38 64.91917 62.52796 36340 ft 482 kts 260°
2026-04-14 09:39 64.90054 62.37618 36347 ft 482 kts 259°
2026-04-14 09:39 64.88174 62.22463 36345 ft 482 kts 259°
2026-04-14 09:40 64.86277 62.07326 36343 ft 482 kts 259°
2026-04-14 09:40 64.84365 61.92215 36339 ft 481 kts 259°
2026-04-14 09:41 64.82455 61.77251 36344 ft 481 kts 259°
2026-04-14 09:41 64.80514 61.62190 36351 ft 482 kts 259°
2026-04-14 09:42 64.78560 61.47156 36357 ft 482 kts 259°
2026-04-14 09:42 64.76587 61.32124 36360 ft 482 kts 258°
2026-04-14 09:43 64.74598 61.17115 36353 ft 482 kts 259°
2026-04-14 09:43 64.72592 61.02122 36365 ft 483 kts 259°
2026-04-14 09:44 64.70572 60.87128 36362 ft 484 kts 259°
2026-04-14 09:44 64.68544 60.72205 36367 ft 485 kts 258°
2026-04-14 09:45 64.66484 60.57196 36358 ft 485 kts 258°
2026-04-14 09:45 64.64410 60.42206 36344 ft 485 kts 258°
2026-04-14 09:46 64.62321 60.27230 36357 ft 484 kts 258°
2026-04-14 09:46 64.60244 60.12308 36370 ft 484 kts 258°
2026-04-14 09:47 64.58164 59.97391 36373 ft 484 kts 258°
2026-04-14 09:47 64.56082 59.82608 36371 ft 483 kts 258°
2026-04-14 09:48 64.53972 59.67773 36373 ft 483 kts 257°
2026-04-14 09:48 64.51851 59.52996 36376 ft 482 kts 257°
2026-04-14 09:49 64.49712 59.38230 36415 ft 482 kts 257°
2026-04-14 09:49 64.47562 59.23491 36410 ft 482 kts 257°
2026-04-14 09:50 64.45396 59.08777 36415 ft 482 kts 257°
2026-04-14 09:50 64.43234 58.94202 36370 ft 481 kts 257°
2026-04-14 09:51 64.41043 58.79565 36422 ft 481 kts 256°
2026-04-14 09:51 64.38841 58.64962 36430 ft 481 kts 256°
2026-04-14 09:52 64.36621 58.50363 36434 ft 482 kts 256°
2026-04-14 09:52 64.34384 58.35757 36438 ft 482 kts 256°
2026-04-14 09:53 64.32132 58.21175 36442 ft 483 kts 256°
2026-04-14 09:53 64.29881 58.06615 36438 ft 482 kts 256°
2026-04-14 09:54 64.27625 57.92082 36444 ft 482 kts 255°
2026-04-14 09:54 64.25358 57.77593 36455 ft 481 kts 255°
2026-04-14 09:55 64.23077 57.63134 36452 ft 481 kts 255°
2026-04-14 09:55 64.20794 57.48779 36458 ft 481 kts 255°
2026-04-14 09:56 64.18482 57.34360 36451 ft 480 kts 255°
2026-04-14 09:56 64.16160 57.19987 36457 ft 480 kts 255°
2026-04-14 09:57 64.13824 57.05639 36459 ft 480 kts 254°
2026-04-14 09:57 64.11476 56.91332 36460 ft 481 kts 254°
2026-04-14 09:58 64.09109 56.77010 36467 ft 481 kts 254°
2026-04-14 09:58 64.06725 56.62698 36467 ft 482 kts 253°
2026-04-14 09:59 64.04342 56.48498 36459 ft 482 kts 253°
2026-04-14 09:59 64.02322 56.36530 36473 ft 483 kts 253°
2026-04-14 10:00 63.99495 56.19928 36466 ft 483 kts 253°
2026-04-14 10:00 63.97048 56.05691 36479 ft 483 kts 253°
2026-04-14 10:01 63.95001 55.93852 36478 ft 483 kts 253°
2026-04-14 10:01 63.92534 55.79653 36472 ft 483 kts 253°
2026-04-14 10:02 63.90057 55.65496 36482 ft 482 kts 253°
2026-04-14 10:02 63.87561 55.51344 36482 ft 482 kts 253°
2026-04-14 10:03 63.85058 55.37240 36472 ft 482 kts 252°
2026-04-14 10:03 63.82542 55.23160 36442 ft 482 kts 252°
2026-04-14 10:04 63.80030 55.09110 36472 ft 481 kts 252°
2026-04-14 10:04 63.77526 54.95167 36481 ft 481 kts 252°
2026-04-14 10:05 63.74997 54.81191 36483 ft 480 kts 252°
2026-04-14 10:05 63.72456 54.67259 36489 ft 481 kts 252°
2026-04-14 10:06 63.69887 54.53273 36459 ft 481 kts 252°
2026-04-14 10:06 63.67317 54.39378 36494 ft 480 kts 252°
2026-04-14 10:07 63.64736 54.25524 36494 ft 480 kts 252°
2026-04-14 10:07 63.62159 54.11782 36500 ft 479 kts 252°
2026-04-14 10:08 63.59554 53.97973 36496 ft 479 kts 251°
2026-04-14 10:08 63.56939 53.84196 36500 ft 479 kts 252°
2026-04-14 10:09 63.54736 53.70165 36491 ft 473 kts 259°
2026-04-14 10:09 63.53209 53.55852 36498 ft 471 kts 263°
2026-04-14 10:10 63.52010 53.41525 36505 ft 470 kts 264°
2026-04-14 10:10 63.50709 53.27110 36500 ft 472 kts 262°
2026-04-14 10:11 63.49250 53.12770 36503 ft 472 kts 261°
2026-04-14 10:11 63.47734 52.98543 36485 ft 472 kts 261°
2026-04-14 10:12 63.46202 52.84222 36502 ft 473 kts 261°
2026-04-14 10:12 63.44667 52.69912 36507 ft 473 kts 261°
2026-04-14 10:13 63.43121 52.55614 36507 ft 473 kts 261°
2026-04-14 10:13 63.41570 52.41424 36505 ft 473 kts 260°
2026-04-14 10:14 63.39995 52.27144 36508 ft 473 kts 260°
2026-04-14 10:14 63.38416 52.12900 36497 ft 472 kts 260°
2026-04-14 10:15 63.36842 51.98674 36499 ft 472 kts 260°
2026-04-14 10:15 63.35259 51.84477 36514 ft 472 kts 260°
2026-04-14 10:16 63.33660 51.70308 36515 ft 472 kts 259°
2026-04-14 10:16 63.32054 51.56222 36505 ft 472 kts 259°
2026-04-14 10:17 63.30424 51.42071 36479 ft 472 kts 259°
2026-04-14 10:17 63.28781 51.27930 36494 ft 472 kts 259°
2026-04-14 10:18 63.26299 51.06846 36508 ft 472 kts 259°
2026-04-14 10:18 63.24620 50.92747 36505 ft 472 kts 259°
2026-04-14 10:19 63.22926 50.78658 36503 ft 473 kts 258°
2026-04-14 10:19 63.21215 50.64561 36476 ft 473 kts 258°
2026-04-14 10:20 63.19494 50.50498 36496 ft 472 kts 258°
2026-04-14 10:20 63.17759 50.36460 36506 ft 472 kts 258°
2026-04-14 10:21 63.16017 50.22501 36502 ft 473 kts 258°
2026-04-14 10:21 63.14252 50.08484 36506 ft 473 kts 257°
2026-04-14 10:22 63.12472 49.94474 36500 ft 473 kts 257°
2026-04-14 10:22 63.10681 49.80493 36492 ft 472 kts 257°
2026-04-14 10:23 63.08889 49.66622 36493 ft 472 kts 257°
2026-04-14 10:23 63.07073 49.52710 36492 ft 472 kts 257°
2026-04-14 10:24 63.05237 49.38761 36498 ft 473 kts 257°
2026-04-14 10:24 63.03384 49.24805 36500 ft 474 kts 256°
2026-04-14 10:25 63.01515 49.10847 36497 ft 475 kts 256°
2026-04-14 10:25 62.99632 48.96887 36498 ft 475 kts 256°
2026-04-14 10:26 62.97742 48.83009 36498 ft 474 kts 256°
2026-04-14 10:26 62.95846 48.69224 36499 ft 473 kts 255°
2026-04-14 10:27 62.93931 48.55411 36509 ft 472 kts 255°
2026-04-14 10:27 62.92006 48.41629 36490 ft 472 kts 255°
2026-04-14 10:28 62.90073 48.27899 36490 ft 471 kts 255°
2026-04-14 10:28 62.88123 48.14168 36506 ft 471 kts 255°
2026-04-14 10:29 62.86163 48.00472 36500 ft 471 kts 255°
2026-04-14 10:29 62.84187 47.86777 36512 ft 472 kts 255°
2026-04-14 10:30 62.82195 47.73086 36497 ft 472 kts 255°
2026-04-14 10:30 62.80203 47.59501 36504 ft 473 kts 254°
2026-04-14 10:31 62.78181 47.45807 36488 ft 473 kts 254°
2026-04-14 10:31 62.76146 47.32149 36504 ft 473 kts 253°
2026-04-14 10:32 62.74098 47.18519 36493 ft 473 kts 253°
2026-04-14 10:32 62.72031 47.04868 36511 ft 474 kts 253°
2026-04-14 10:33 62.70992 46.98044 36717 ft 475 kts 253°
2026-04-14 10:33 62.69949 46.91216 37056 ft 474 kts 253°
2026-04-14 10:33 62.68916 46.84491 37410 ft 473 kts 253°
2026-04-14 10:33 62.67872 46.77714 37737 ft 472 kts 253°
2026-04-14 10:34 62.65778 46.64194 38354 ft 471 kts 253°
2026-04-14 10:34 62.64726 46.57439 38432 ft 474 kts 252°
2026-04-14 10:35 62.62599 46.43847 38486 ft 474 kts 252°
2026-04-14 10:35 62.60473 46.30364 38476 ft 470 kts 252°
2026-04-14 10:36 62.58294 46.17046 38480 ft 465 kts 249°
2026-04-14 10:36 62.55305 46.04561 38493 ft 471 kts 241°
2026-04-14 10:37 62.51979 45.92287 38490 ft 478 kts 242°
2026-04-14 10:37 62.48769 45.79680 38488 ft 478 kts 244°
2026-04-14 10:38 62.45718 45.66903 38491 ft 478 kts 244°
2026-04-14 10:38 62.42606 45.54186 38481 ft 478 kts 243°
2026-04-14 10:39 62.39421 45.41630 38477 ft 476 kts 242°
2026-04-14 10:39 62.36210 45.29164 38448 ft 475 kts 242°
2026-04-14 10:40 62.33018 45.16839 38472 ft 474 kts 242°
2026-04-14 10:40 62.29804 45.04461 38466 ft 473 kts 242°
2026-04-14 10:41 62.26587 44.92134 38469 ft 473 kts 242°
2026-04-14 10:41 62.23358 44.79820 38461 ft 473 kts 241°
2026-04-14 10:42 62.20122 44.67554 38471 ft 473 kts 241°
2026-04-14 10:42 62.16869 44.55287 38470 ft 473 kts 241°
2026-04-14 10:43 62.13610 44.43065 38473 ft 473 kts 241°
2026-04-14 10:43 62.10361 44.30928 38468 ft 473 kts 241°
2026-04-14 10:44 62.07618 44.20712 38476 ft 473 kts 241°
2026-04-14 10:44 62.03796 44.06538 38470 ft 473 kts 240°
2026-04-14 10:45 62.00506 43.94418 38469 ft 472 kts 240°
2026-04-14 10:45 61.97231 43.82419 38468 ft 472 kts 240°
2026-04-14 10:46 61.93927 43.70376 38465 ft 471 kts 240°
2026-04-14 10:46 61.91152 43.60309 38467 ft 471 kts 240°
2026-04-14 10:47 61.87857 43.48412 38472 ft 470 kts 240°
2026-04-14 10:47 61.83980 43.34495 38470 ft 468 kts 239°
2026-04-14 10:48 61.81223 43.24656 38469 ft 467 kts 239°
2026-04-14 10:48 61.77897 43.12837 38467 ft 467 kts 239°
2026-04-14 10:49 61.74588 43.01140 38460 ft 466 kts 239°
2026-04-14 10:49 61.70688 42.87418 38468 ft 467 kts 238°
2026-04-14 10:50 61.67880 42.77600 38459 ft 467 kts 238°
2026-04-14 10:50 61.64545 42.65997 38459 ft 466 kts 238°
2026-04-14 10:51 61.61176 42.54326 38453 ft 466 kts 238°
2026-04-14 10:51 61.57800 42.42685 38463 ft 466 kts 238°
2026-04-14 10:52 61.54679 42.30782 38448 ft 466 kts 245°
2026-04-14 10:52 61.52735 42.18006 38461 ft 464 kts 259°
2026-04-14 10:53 61.51666 42.04567 38466 ft 470 kts 259°
2026-04-14 10:53 61.50139 41.91311 38473 ft 472 kts 253°
2026-04-14 10:54 61.48293 41.78109 38452 ft 470 kts 253°
2026-04-14 10:54 61.46537 41.65028 38452 ft 464 kts 254°
2026-04-14 10:55 61.44883 41.52028 38445 ft 461 kts 255°
2026-04-14 10:55 61.43256 41.39073 38468 ft 465 kts 255°
2026-04-14 10:56 61.41587 41.25907 38461 ft 472 kts 254°
2026-04-14 10:56 61.39873 41.12575 38463 ft 476 kts 254°
2026-04-14 10:57 61.38148 40.99318 38444 ft 469 kts 254°
2026-04-14 10:57 61.36435 40.86266 38450 ft 464 kts 254°
2026-04-14 10:58 61.34718 40.73295 38451 ft 464 kts 253°
2026-04-14 10:58 61.32986 40.60303 38458 ft 471 kts 253°
2026-04-14 10:59 61.31211 40.47100 38451 ft 475 kts 253°
2026-04-14 10:59 61.29416 40.33848 38457 ft 476 kts 253°
2026-04-14 11:00 61.27604 40.20597 38448 ft 476 kts 253°
2026-04-14 11:00 61.25795 40.07461 38437 ft 470 kts 253°
2026-04-14 11:01 61.23983 39.94418 38458 ft 471 kts 252°
2026-04-14 11:01 61.22147 39.81311 38453 ft 473 kts 252°
2026-04-14 11:02 61.20295 39.68199 38455 ft 474 kts 252°
2026-04-14 11:02 61.18425 39.55068 38440 ft 475 kts 252°
2026-04-14 11:03 61.16557 39.42043 38450 ft 474 kts 252°
2026-04-14 11:03 61.14659 39.28918 38448 ft 474 kts 252°
2026-04-14 11:04 61.12752 39.15830 38455 ft 474 kts 252°
2026-04-14 11:04 61.10839 39.02803 38447 ft 473 kts 251°
2026-04-14 11:05 61.08920 38.89834 38446 ft 472 kts 251°
2026-04-14 11:05 61.06997 38.76936 38458 ft 471 kts 251°
2026-04-14 11:06 61.05056 38.64009 38436 ft 472 kts 251°
2026-04-14 11:06 61.03099 38.51077 38458 ft 472 kts 251°
2026-04-14 11:07 61.01125 38.38134 38445 ft 473 kts 250°
2026-04-14 11:07 60.99152 38.25286 38452 ft 473 kts 250°
2026-04-14 11:08 60.97155 38.12379 38458 ft 473 kts 250°
2026-04-14 11:08 60.95143 37.99467 38444 ft 473 kts 250°
2026-04-14 11:09 60.93124 37.86604 38454 ft 473 kts 250°
2026-04-14 11:09 60.91089 37.73730 38448 ft 473 kts 250°
2026-04-14 11:10 60.88031 37.54551 38452 ft 473 kts 250°
2026-04-14 11:10 60.85962 37.41694 38445 ft 474 kts 249°
2026-04-14 11:11 60.83882 37.28868 38446 ft 473 kts 249°
2026-04-14 11:11 60.81707 37.16124 38452 ft 473 kts 248°
2026-04-14 11:12 60.79477 37.03414 38450 ft 474 kts 248°
2026-04-14 11:12 60.77260 36.90793 38461 ft 475 kts 248°
2026-04-14 11:13 60.75024 36.78074 38455 ft 475 kts 248°
2026-04-14 11:13 60.72779 36.65381 38456 ft 474 kts 248°
2026-04-14 11:14 60.70523 36.52716 38452 ft 474 kts 248°
2026-04-14 11:14 60.68255 36.40076 38471 ft 474 kts 248°
2026-04-14 11:15 60.65977 36.27468 38460 ft 475 kts 247°
2026-04-14 11:15 60.63691 36.14893 38472 ft 476 kts 247°
2026-04-14 11:16 60.61375 36.02236 38469 ft 477 kts 247°
2026-04-14 11:16 60.59043 35.89569 38457 ft 478 kts 247°
2026-04-14 11:17 60.56695 35.76906 38458 ft 479 kts 247°
2026-04-14 11:17 60.54335 35.64255 38452 ft 479 kts 247°
2026-04-14 11:18 60.51957 35.51596 38462 ft 479 kts 246°
2026-04-14 11:18 60.49573 35.38981 38466 ft 479 kts 246°
2026-04-14 11:19 60.47216 35.26577 38455 ft 479 kts 246°
2026-04-14 11:19 60.44840 35.13951 38454 ft 479 kts 248°
2026-04-14 11:20 60.42989 35.01051 38448 ft 481 kts 254°
2026-04-14 11:20 60.41467 34.87839 38451 ft 481 kts 255°
2026-04-14 11:21 60.39923 34.74679 38465 ft 480 kts 253°
2026-04-14 11:21 60.38280 34.61583 38457 ft 480 kts 253°
2026-04-14 11:22 60.36584 34.48519 38450 ft 480 kts 253°
2026-04-14 11:22 60.34875 34.35471 38402 ft 481 kts 252°
2026-04-14 11:23 60.34008 34.28870 37636 ft 491 kts 252°
2026-04-14 11:23 60.33135 34.22218 36964 ft 488 kts 252°
2026-04-14 11:23 60.32266 34.15598 36243 ft 486 kts 251°
2026-04-14 11:23 60.31396 34.09008 35415 ft 486 kts 251°
2026-04-14 11:24 60.30535 34.02512 34624 ft 485 kts 250°
2026-04-14 11:24 60.29666 33.95986 33669 ft 477 kts 250°
2026-04-14 11:24 60.28815 33.89613 32724 ft 465 kts 250°
2026-04-14 11:24 60.27978 33.83394 31827 ft 454 kts 249°
2026-04-14 11:25 60.27156 33.77328 30941 ft 444 kts 249°
2026-04-14 11:25 60.26351 33.71416 30314 ft 431 kts 249°
2026-04-14 11:25 60.25559 33.65635 29651 ft 429 kts 249°
2026-04-14 11:25 60.24750 33.59796 29025 ft 438 kts 249°
2026-04-14 11:26 60.23914 33.53792 28389 ft 450 kts 249°
2026-04-14 11:26 60.23084 33.47801 27745 ft 449 kts 249°
2026-04-14 11:26 60.22243 33.41700 27085 ft 444 kts 249°
2026-04-14 11:26 60.21431 33.35814 26461 ft 440 kts 249°
2026-04-14 11:27 60.20615 33.29935 25850 ft 435 kts 249°
2026-04-14 11:27 60.19800 33.24102 25240 ft 431 kts 249°
2026-04-14 11:27 60.18986 33.18307 24645 ft 428 kts 249°
2026-04-14 11:27 60.18176 33.12572 24058 ft 425 kts 249°
2026-04-14 11:28 60.17370 33.06874 23358 ft 423 kts 248°
2026-04-14 11:28 60.16565 33.01204 22710 ft 419 kts 248°
2026-04-14 11:28 60.15767 32.95608 22118 ft 415 kts 248°
2026-04-14 11:28 60.14973 32.90071 21544 ft 411 kts 248°
2026-04-14 11:29 60.14182 32.84572 20955 ft 408 kts 248°
2026-04-14 11:29 60.13393 32.79105 20378 ft 406 kts 248°
2026-04-14 11:29 60.12874 32.75517 19998 ft 404 kts 249°
2026-04-14 11:29 60.11837 32.68374 19248 ft 401 kts 249°
2026-04-14 11:30 60.11056 32.63008 18679 ft 400 kts 249°
2026-04-14 11:30 60.10277 32.57670 18045 ft 398 kts 249°
2026-04-14 11:30 60.09496 32.52378 17400 ft 394 kts 249°
2026-04-14 11:30 60.08678 32.47124 16857 ft 396 kts 249°
2026-04-14 11:31 60.07834 32.41866 16444 ft 397 kts 249°
2026-04-14 11:31 60.06981 32.36612 16129 ft 395 kts 249°
2026-04-14 11:31 60.06143 32.31455 15855 ft 392 kts 249°
2026-04-14 11:31 60.05303 32.26279 15535 ft 391 kts 249°
2026-04-14 11:32 60.04464 32.21097 15191 ft 390 kts 249°
2026-04-14 11:32 60.03628 32.15935 14857 ft 389 kts 250°
2026-04-14 11:32 60.02795 32.10794 14541 ft 388 kts 250°
2026-04-14 11:32 60.01963 32.05666 14167 ft 387 kts 250°
2026-04-14 11:33 60.01139 32.00594 13603 ft 387 kts 250°
2026-04-14 11:33 60.00311 31.95502 13047 ft 384 kts 250°
2026-04-14 11:33 59.99489 31.90463 12502 ft 380 kts 250°
2026-04-14 11:34 59.98116 31.82102 11580 ft 376 kts 250°
2026-04-14 11:34 59.97075 31.75772 11273 ft 339 kts 249°
2026-04-14 11:34 59.96375 31.71522 11143 ft 307 kts 249°
2026-04-14 11:34 59.95725 31.67603 11040 ft 288 kts 249°
2026-04-14 11:35 59.95104 31.63880 10934 ft 279 kts 249°
2026-04-14 11:35 59.94505 31.60296 10829 ft 271 kts 249°
2026-04-14 11:35 59.93907 31.56728 10719 ft 276 kts 249°
2026-04-14 11:35 59.93283 31.53010 10641 ft 285 kts 249°
2026-04-14 11:36 59.92658 31.49272 10478 ft 284 kts 249°
2026-04-14 11:36 59.92030 31.45527 10106 ft 285 kts 249°
2026-04-14 11:36 59.91399 31.41776 9763 ft 284 kts 249°
2026-04-14 11:36 59.90771 31.38049 9421 ft 283 kts 249°
2026-04-14 11:37 59.90145 31.34351 9102 ft 282 kts 249°
2026-04-14 11:37 59.89519 31.30652 8794 ft 281 kts 249°
2026-04-14 11:37 59.88893 31.26974 8461 ft 280 kts 250°
2026-04-14 11:37 59.88473 31.24499 8262 ft 279 kts 250°
2026-04-14 11:38 59.87857 31.20880 7926 ft 278 kts 250°
2026-04-14 11:38 59.87237 31.17233 7614 ft 277 kts 251°
2026-04-14 11:38 59.86900 31.13513 7273 ft 272 kts 272°
2026-04-14 11:38 59.87118 31.09824 6993 ft 269 kts 280°
2026-04-14 11:39 59.87500 31.06177 6710 ft 266 kts 284°
2026-04-14 11:39 59.88011 31.02640 6482 ft 262 kts 287°
2026-04-14 11:39 59.88569 30.99229 6436 ft 258 kts 290°
2026-04-14 11:39 59.89224 30.95803 6508 ft 272 kts 292°
2026-04-14 11:40 59.89932 30.92259 6523 ft 277 kts 292°
2026-04-14 11:40 59.90643 30.88695 6514 ft 276 kts 292°
2026-04-14 11:40 59.91342 30.85146 6505 ft 274 kts 292°
2026-04-14 11:40 59.92030 30.81626 6505 ft 272 kts 291°
2026-04-14 11:41 59.92703 30.78113 6513 ft 271 kts 291°
2026-04-14 11:41 59.93375 30.74604 6500 ft 270 kts 291°
2026-04-14 11:41 59.94043 30.71108 6503 ft 269 kts 291°
2026-04-14 11:41 59.94709 30.67608 6514 ft 270 kts 291°
2026-04-14 11:42 59.95365 30.64146 6506 ft 271 kts 291°
2026-04-14 11:42 59.96029 30.60622 6502 ft 272 kts 290°
2026-04-14 11:42 59.96655 30.57045 6507 ft 273 kts 289°
2026-04-14 11:42 59.97258 30.53451 6507 ft 272 kts 289°
2026-04-14 11:43 59.97852 30.49856 6519 ft 273 kts 288°
2026-04-14 11:43 59.98451 30.46248 6510 ft 274 kts 288°
2026-04-14 11:43 59.99054 30.42625 6517 ft 275 kts 288°
2026-04-14 11:43 59.99660 30.38989 6509 ft 277 kts 288°
2026-04-14 11:44 60.00263 30.35383 6508 ft 277 kts 288°
2026-04-14 11:44 60.00872 30.31728 6509 ft 277 kts 288°
2026-04-14 11:44 60.01479 30.28078 6503 ft 277 kts 288°
2026-04-14 11:44 60.02084 30.24431 6501 ft 276 kts 288°
2026-04-14 11:45 60.02685 30.20788 6516 ft 276 kts 288°
2026-04-14 11:45 60.03286 30.17135 6500 ft 275 kts 287°
2026-04-14 11:45 60.03694 30.13451 6499 ft 271 kts 277°
2026-04-14 11:45 60.03912 30.09689 6506 ft 271 kts 275°
2026-04-14 11:46 60.04124 30.05921 6509 ft 273 kts 276°
2026-04-14 11:46 60.04358 30.02189 6509 ft 275 kts 276°
2026-04-14 11:46 60.04610 29.98390 6509 ft 276 kts 277°
2026-04-14 11:46 60.04865 29.94565 6502 ft 278 kts 277°
2026-04-14 11:47 60.05117 29.90724 6496 ft 278 kts 277°
2026-04-14 11:47 60.05367 29.86889 6495 ft 277 kts 276°
2026-04-14 11:47 60.05614 29.83071 6496 ft 276 kts 277°
2026-04-14 11:47 60.05860 29.79258 6492 ft 276 kts 277°
2026-04-14 11:48 60.06027 29.75474 6485 ft 268 kts 264°
2026-04-14 11:48 60.05496 29.71960 6508 ft 265 kts 243°
2026-04-14 11:48 60.04721 29.68621 6499 ft 261 kts 244°
2026-04-14 11:48 60.04027 29.65337 6489 ft 251 kts 246°
2026-04-14 11:49 60.03205 29.62357 6488 ft 242 kts 227°
2026-04-14 11:49 60.02063 29.59842 6508 ft 245 kts 223°
2026-04-14 11:49 60.00892 29.57354 6505 ft 246 kts 224°
2026-04-14 11:49 59.99739 29.54809 6498 ft 247 kts 225°
2026-04-14 11:50 59.98531 29.52423 6487 ft 241 kts 211°
2026-04-14 11:50 59.97083 29.50828 6506 ft 236 kts 202°
2026-04-14 11:50 59.95594 29.49426 6500 ft 238 kts 202°
2026-04-14 11:51 59.92556 29.47195 6504 ft 230 kts 175°
2026-04-14 11:51 59.91040 29.48025 6406 ft 228 kts 143°
2026-04-14 11:51 59.90032 29.50372 6278 ft 224 kts 110°
2026-04-14 11:51 59.89727 29.53374 6160 ft 220 kts 97°
2026-04-14 11:52 59.89519 29.56420 6049 ft 223 kts 99°
2026-04-14 11:52 59.89205 29.59482 5937 ft 227 kts 103°
2026-04-14 11:52 59.88812 29.62476 5806 ft 225 kts 105°
2026-04-14 11:52 59.88384 29.65436 5663 ft 220 kts 106°
2026-04-14 11:53 59.87954 29.68343 5545 ft 217 kts 106°
2026-04-14 11:53 59.87530 29.71194 5340 ft 212 kts 106°
2026-04-14 11:53 59.87117 29.73974 5108 ft 205 kts 106°
2026-04-14 11:53 59.86722 29.76605 4798 ft 194 kts 106°
2026-04-14 11:54 59.86350 29.79120 4547 ft 185 kts 105°
2026-04-14 11:54 59.85997 29.81514 4324 ft 173 kts 105°
2026-04-14 11:54 59.85671 29.83689 4062 ft 156 kts 105°
2026-04-14 11:54 59.85384 29.85627 3862 ft 138 kts 104°
2026-04-14 11:55 59.85112 29.87456 3707 ft 140 kts 104°
2026-04-14 11:55 59.84830 29.89341 3511 ft 143 kts 104°
2026-04-14 11:55 59.84554 29.91200 3310 ft 141 kts 104°
2026-04-14 11:55 59.84277 29.93070 3106 ft 138 kts 104°
2026-04-14 11:56 59.84006 29.94893 2932 ft 141 kts 104°
2026-04-14 11:56 59.83727 29.96771 2737 ft 142 kts 104°
2026-04-14 11:56 59.83451 29.98634 2524 ft 140 kts 104°
2026-04-14 11:56 59.83178 30.00473 2352 ft 139 kts 104°
2026-04-14 11:57 59.82899 30.02328 2159 ft 141 kts 104°
2026-04-14 11:57 59.82620 30.04203 1964 ft 141 kts 104°
2026-04-14 11:57 59.82344 30.06063 1760 ft 139 kts 104°
2026-04-14 11:57 59.82068 30.07913 1572 ft 140 kts 104°
2026-04-14 11:58 59.81789 30.09779 1376 ft 141 kts 104°
2026-04-14 11:58 59.81511 30.11655 1187 ft 143 kts 104°
2026-04-14 11:58 59.81230 30.13542 976 ft 145 kts 105°
2026-04-14 11:58 59.80943 30.15461 765 ft 145 kts 105°
2026-04-14 11:59 59.80656 30.17387 573 ft 146 kts 105°
2026-04-14 11:59 59.80368 30.19334 349 ft 148 kts 105°
2026-04-14 11:59 59.80078 30.21271 182 ft 145 kts 105°
2026-04-14 11:59 59.79796 30.23169 94 ft 135 kts 105°
2026-04-14 12:00 59.79564 30.24720 91 ft 92 kts 107°
2026-04-14 12:00 59.79431 30.25588 92 ft 39 kts 107°
2026-04-14 12:00 59.79390 30.25864 92 ft 17 kts 106°
2026-04-14 12:00 59.79358 30.26078 92 ft 14 kts 106°
2026-04-14 12:01 59.79333 30.26258 92 ft 13 kts 97°
2026-04-14 12:01 59.79389 30.26384 92 ft 13 kts 22°
2026-04-14 12:01 59.79396 30.26389 92 ft 0 kts 18°
2026-04-14 12:02 59.79407 30.26397 92 ft 6 kts 18°
2026-04-14 12:02 59.79449 30.26423 91 ft 6 kts 14°
2026-04-14 12:03 59.79487 30.26380 93 ft 7 kts 303°
2026-04-14 12:03 59.79520 30.26322 94 ft 7 kts 354°
2026-04-14 12:03 59.79576 30.26338 90 ft 9 kts 14°
2026-04-14 12:03 59.79639 30.26374 91 ft 10 kts 17°
2026-04-14 12:04 59.79703 30.26413 91 ft 10 kts 17°
2026-04-14 12:04 59.79766 30.26450 93 ft 9 kts 17°
2026-04-14 12:04 59.79819 30.26482 91 ft 8 kts 17°
2026-04-14 12:04 59.79865 30.26508 93 ft 6 kts 17°
2026-04-14 12:05 59.79890 30.26544 94 ft 4 kts 75°
2026-04-14 12:05 59.79883 30.26606 90 ft 5 kts 107°
2026-04-14 12:05 59.79873 30.26669 92 ft 5 kts 107°
2026-04-14 12:05 59.79865 30.26722 90 ft 0 kts 106°